Weather History for Melbourne, FL

Change the Weather History Date:

Wednesday, February 13, 2013

  Actual Average Record
Temperature  
Mean Temperature 76 °F 62 °F  
Max Temperature 88 °F 74 °F 88 °F (2013)
Min Temperature 64 °F 52 °F 32 °F (2006)
Degree Days  
Heating Degree Days 0 4  
Month to date heating degree days 44 64  
Since 1 July heating degree days 236 433  
Cooling Degree Days 11 2  
Month to date cooling degree days 44 26  
Year to date cooling degree days 148 70  
Growing Degree Days 26 (Base 50)    
Moisture  
Dew Point 66 °F    
Average Humidity 70    
Maximum Humidity 100    
Minimum Humidity 40    
Precipitation  
Precipitation 0.02 in 0.09 in 2.90 in (1947)
Month to date precipitation 0.02 1.13  
Year to date precipitation 1.68 3.40  
Sea Level Pressure  
Sea Level Pressure 29.93 in    
Wind  
Wind Speed 12 mph (SW)    
Max Wind Speed 25 mph    
Max Gust Speed 32 mph    
Visibility 10 miles    
Events Rain    
T = Trace of Precipitation, MM = Missing Value Source: NWS Daily Summary

Daily Weather History Graph

Daily Weather History Graph

Search for Another Location

Airport:

Trip Planner

Search our weather history database for the weather conditions in past years. The results will help you decide how hot, cold, wet, or windy it might be!

Date:

Astronomy

Feb. 13, 2013 Rise Set
Actual Time 7:01 AM EST 6:12 PM EST
Civil Twilight 6:37 AM EST 6:36 PM EST
Nautical Twilight 6:09 AM EST 7:03 PM EST
Astronomical Twilight 5:42 AM EST 7:31 PM EST
Moon 8:53 AM EST (2/13) 9:47 PM EST (2/13)
Length of Visible Light 11h 58m
Length of Day
11h 10m
Waxing Crescent, 13% of the Moon is Illuminated
Feb 13
Waxing Crescent
Feb 17
First Quarter
Feb 25
Full
Mar 4
Last Quarter
Mar 11
New

Hourly Weather History & Observations

Time (EST) Temp. Heat Index Dew Point Humidity Pressure Visibility Wind Dir Wind Speed Gust Speed Precip Events Conditions
12:53 AM 68.0 °F - 66.0 °F 93% 29.97 in 10.0 mi South 9.2 mph - N/A   Clear
1:53 AM 68.0 °F - 66.0 °F 93% 29.97 in 10.0 mi SSW 8.1 mph - N/A   Clear
2:53 AM 68.0 °F - 66.0 °F 93% 29.96 in 10.0 mi SSW 6.9 mph - N/A   Mostly Cloudy
3:53 AM 68.0 °F - 66.9 °F 96% 29.95 in 10.0 mi South 9.2 mph - N/A   Partly Cloudy
4:20 AM 68.0 °F - 66.2 °F 94% 29.94 in 10.0 mi SSW 10.4 mph - N/A   Partly Cloudy
4:53 AM 68.0 °F - 66.9 °F 96% 29.94 in 10.0 mi SSW 9.2 mph - N/A   Mostly Cloudy
5:53 AM 69.1 °F - 68.0 °F 96% 29.95 in 10.0 mi SSW 12.7 mph - N/A   Mostly Cloudy
6:53 AM 70.0 °F - 69.1 °F 97% 29.96 in 10.0 mi SSW 11.5 mph - N/A   Overcast
7:53 AM 70.0 °F - 68.0 °F 93% 29.97 in 10.0 mi SSW 12.7 mph - N/A   Overcast
8:53 AM 72.0 °F - 69.1 °F 91% 29.97 in 10.0 mi SSW 18.4 mph 25.3 mph N/A   Overcast
9:53 AM 75.9 °F - 66.9 °F 74% 29.98 in 10.0 mi SSW 18.4 mph 26.5 mph N/A   Mostly Cloudy
9:58 AM 77.0 °F - 68.0 °F 74% 29.98 in 10.0 mi SSW 17.3 mph 26.5 mph N/A   Scattered Clouds
10:05 AM 77.0 °F - 68.0 °F 74% 29.98 in 10.0 mi South 15.0 mph 23.0 mph N/A   Mostly Cloudy
10:50 AM 78.8 °F - 69.8 °F 74% 29.97 in 10.0 mi SSW 18.4 mph - N/A   Scattered Clouds
10:53 AM 79.0 °F - 69.1 °F 72% 29.97 in 10.0 mi SSW 17.3 mph - N/A   Partly Cloudy
11:53 AM 81.0 °F 83.8 °F 68.0 °F 65% 29.94 in 10.0 mi SW 16.1 mph 25.3 mph N/A   Scattered Clouds
12:53 PM 82.9 °F 85.4 °F 66.9 °F 58% 29.91 in 10.0 mi SW 16.1 mph 21.9 mph N/A   Mostly Cloudy
1:53 PM 86.0 °F 88.2 °F 66.0 °F 51% 29.87 in 9.0 mi SW 18.4 mph 27.6 mph N/A   Partly Cloudy
2:53 PM 86.0 °F 87.3 °F 64.0 °F 48% 29.85 in 10.0 mi SW 18.4 mph 26.5 mph N/A   Mostly Cloudy
3:53 PM 88.0 °F 87.9 °F 61.0 °F 40% 29.83 in 10.0 mi SW 20.7 mph 28.8 mph N/A   Partly Cloudy
4:53 PM 86.0 °F 86.3 °F 62.1 °F 44% 29.84 in 10.0 mi WSW 11.5 mph 25.3 mph N/A   Partly Cloudy
5:53 PM 82.9 °F 83.7 °F 62.1 °F 49% 29.85 in 10.0 mi SW 13.8 mph - N/A   Clear
6:53 PM 80.1 °F 81.7 °F 64.0 °F 58% 29.87 in 10.0 mi SW 12.7 mph 19.6 mph N/A   Clear
7:53 PM 77.0 °F - 64.9 °F 66% 29.89 in 10.0 mi SW 9.2 mph - N/A   Clear
8:53 PM 75.9 °F - 66.0 °F 71% 29.91 in 10.0 mi WSW 10.4 mph - N/A   Clear
9:38 PM 66.2 °F - 60.8 °F 83% 29.96 in 10.0 mi NW 19.6 mph 29.9 mph 0.00 in Rain Light Rain
9:53 PM 64.9 °F - 61.0 °F 87% 29.97 in 8.0 mi NW 12.7 mph 25.3 mph 0.01 in Rain Rain
10:53 PM 64.0 °F - 60.1 °F 87% 29.98 in 10.0 mi NNW 4.6 mph - 0.00 in   Overcast
11:53 PM 64.0 °F - 61.0 °F 90% 29.98 in 10.0 mi Calm Calm - 0.01 in   Overcast